| time (UTC) | temp C | wind direction | speed KPH | gust KPH | rain 1hr cm | rain 24hr cm | rain mn cm | humidity % | barometer mb |
| 20260508070223 | -2 | 209 | 0.0 | 0.0 | 0.00 | 0.00 | 0.00 | 71 | 1008.9 |
| 20260508065222 | -2 | 209 | 0.0 | 0.0 | 0.00 | 0.00 | 0.00 | 74 | 1009.1 |
| 20260508064222 | -2 | 209 | 0.0 | 0.0 | 0.00 | 0.00 | 0.00 | 72 | 1009.2 |
| 20260508063222 | -2 | 209 | 0.0 | 0.0 | 0.00 | 0.00 | 0.00 | 72 | 1009.2 |
| 20260508062223 | -2 | 209 | 0.0 | 0.0 | 0.00 | 0.00 | 0.00 | 70 | 1009.4 |
| 20260508061222 | -2 | 209 | 0.0 | 0.0 | 0.00 | 0.00 | 0.00 | 70 | 1009.4 |
| 20260508060222 | -2 | 209 | 0.0 | 0.0 | 0.00 | 0.00 | 0.00 | 72 | 1009.6 |
| 20260508054223 | -1 | 209 | 0.0 | 0.0 | 0.00 | 0.00 | 0.00 | 72 | 1009.6 |
| 20260508053223 | -1 | 209 | 0.0 | 0.0 | 0.00 | 0.00 | 0.00 | 72 | 1009.6 |
| 20260508052223 | -1 | 209 | 0.0 | 0.0 | 0.00 | 0.00 | 0.00 | 69 | 1009.7 |
| 20260508051224 | -1 | 209 | 0.0 | 0.0 | 0.00 | 0.00 | 0.00 | 69 | 1009.7 |
| 20260508050224 | -1 | 209 | 0.0 | 0.0 | 0.00 | 0.00 | 0.00 | 69 | 1009.7 |
| 20260508045224 | -1 | 209 | 0.0 | 0.0 | 0.00 | 0.00 | 0.00 | 69 | 1009.7 |
| 20260508044223 | -1 | 209 | 0.0 | 0.0 | 0.00 | 0.00 | 0.00 | 68 | 1009.7 |
| 20260508043224 | -1 | 209 | 0.0 | 0.0 | 0.00 | 0.00 | 0.00 | 68 | 1009.7 |
| 20260508042224 | -1 | 209 | 0.0 | 0.0 | 0.00 | 0.00 | 0.00 | 66 | 1009.8 |
| 20260508041224 | -1 | 209 | 0.0 | 0.0 | 0.00 | 0.00 | 0.00 | 66 | 1009.8 |
| 20260508040224 | -1 | 209 | 0.0 | 0.0 | 0.00 | 0.00 | 0.00 | 65 | 1009.8 |
| 20260508035224 | -1 | 209 | 0.0 | 0.0 | 0.00 | 0.00 | 0.00 | 65 | 1009.8 |
| 20260508034223 | 0 | 209 | 0.0 | 1.6 | 0.00 | 0.00 | 0.00 | 64 | 1009.9 |
| 20260508032225 | 0 | 209 | 0.0 | 1.6 | 0.00 | 0.00 | 0.00 | 63 | 1009.9 |
| 20260508030225 | 0 | 209 | 0.0 | 1.6 | 0.00 | 0.00 | 0.00 | 63 | 1009.8 |
| 20260508025224 | 1 | 209 | 0.0 | 1.6 | 0.00 | 0.00 | 0.00 | 57 | 1009.7 |
| 20260508024224 | 1 | 209 | 0.0 | 1.6 | 0.00 | 0.00 | 0.00 | 57 | 1009.7 |
| 20260508023224 | 2 | 209 | 0.0 | 0.0 | 0.00 | 0.00 | 0.00 | 54 | 1009.7 |
| 20260508022239 | 2 | 209 | 0.0 | 0.0 | 0.00 | 0.00 | 0.00 | 54 | 1009.7 |
| 20260508021225 | 4 | 209 | 0.0 | 1.6 | 0.00 | 0.00 | 0.00 | 46 | 1009.6 |
| 20260508020225 | 4 | 209 | 0.0 | 1.6 | 0.00 | 0.00 | 0.00 | 46 | 1009.6 |
| 20260508015125 | 5 | 209 | 0.0 | 3.2 | 0.00 | 0.00 | 0.00 | 42 | 1009.3 |
| 20260508014126 | 5 | 209 | 0.0 | 3.2 | 0.00 | 0.00 | 0.00 | 42 | 1009.3 |
| 20260508013127 | 6 | 209 | 0.0 | 3.2 | 0.00 | 0.00 | 0.00 | 41 | 1009.1 |
| 20260508012125 | 6 | 209 | 0.0 | 3.2 | 0.00 | 0.00 | 0.00 | 41 | 1009.1 |
| 20260508011124 | 6 | 194 | 0.0 | 8.0 | 0.00 | 0.00 | 0.00 | 40 | 1008.9 |
| 20260508010126 | 6 | 194 | 0.0 | 8.0 | 0.00 | 0.00 | 0.00 | 40 | 1008.9 |
| 20260508005124 | 7 | 318 | 0.0 | 12.9 | 0.00 | 0.00 | 0.00 | 39 | 1009.0 |
| 20260508004124 | 7 | 252 | 6.4 | 8.0 | 0.00 | 0.00 | 0.00 | 38 | 1008.9 |
| 20260508003124 | 7 | 252 | 6.4 | 8.0 | 0.00 | 0.00 | 0.00 | 38 | 1008.9 |
| 20260508002124 | 7 | 240 | 3.2 | 12.9 | 0.00 | 0.00 | 0.00 | 38 | 1008.9 |
| 20260508001125 | 7 | 240 | 3.2 | 12.9 | 0.00 | 0.00 | 0.00 | 38 | 1008.9 |
| 20260508000125 | 7 | 287 | 1.6 | 12.9 | 0.00 | 0.00 | 0.00 | 37 | 1008.9 |
| 20260507235125 | 7 | 287 | 1.6 | 12.9 | 0.00 | 0.00 | 0.00 | 37 | 1008.9 |
| 20260507232128 | 7 | 304 | 3.2 | 29.0 | 0.00 | 0.00 | 0.00 | 38 | 1009.0 |
| 20260507231125 | 7 | 304 | 3.2 | 29.0 | 0.00 | 0.00 | 0.00 | 38 | 1009.0 |
| 20260507230125 | 8 | 288 | 9.7 | 17.7 | 0.00 | 0.00 | 0.00 | 36 | 1008.8 |
| 20260507225126 | 8 | 288 | 9.7 | 17.7 | 0.00 | 0.00 | 0.00 | 36 | 1008.8 |
| 20260507222127 | 8 | 32 | 6.4 | 16.1 | 0.00 | 0.00 | 0.00 | 40 | 1009.0 |
| 20260507221127 | 8 | 32 | 6.4 | 16.1 | 0.00 | 0.00 | 0.00 | 40 | 1009.0 |
| 20260507220126 | 8 | 87 | 3.2 | 12.9 | 0.00 | 0.00 | 0.00 | 41 | 1009.1 |
| 20260507215127 | 8 | 87 | 3.2 | 12.9 | 0.00 | 0.00 | 0.00 | 41 | 1009.1 |
| 20260507214126 | 8 | 350 | 8.0 | 14.5 | 0.00 | 0.00 | 0.00 | 41 | 1009.0 |
| 20260507213127 | 8 | 348 | 9.7 | 14.5 | 0.00 | 0.00 | 0.00 | 47 | 1008.9 |
| 20260507212127 | 8 | 348 | 9.7 | 14.5 | 0.00 | 0.00 | 0.00 | 47 | 1008.9 |
| 20260507211127 | 7 | 57 | 4.8 | 20.9 | 0.00 | 0.00 | 0.00 | 47 | 1009.3 |
| 20260507210127 | 7 | 57 | 4.8 | 20.9 | 0.00 | 0.00 | 0.00 | 47 | 1009.3 |
| 20260507205127 | 7 | 255 | 1.6 | 16.1 | 0.00 | 0.00 | 0.00 | 49 | 1008.9 |
| 20260507204127 | 7 | 255 | 1.6 | 16.1 | 0.00 | 0.00 | 0.00 | 49 | 1008.9 |
| 20260507203127 | 7 | 337 | 8.0 | 12.9 | 0.00 | 0.00 | 0.00 | 57 | 1009.3 |
| 20260507202126 | 7 | 337 | 8.0 | 12.9 | 0.00 | 0.00 | 0.00 | 57 | 1009.3 |
| 20260507200127 | 6 | 351 | 8.0 | 17.7 | 0.00 | 0.00 | 0.00 | 67 | 1009.9 |
| 20260507194127 | 6 | 355 | 8.0 | 14.5 | 0.00 | 0.00 | 0.00 | 64 | 1009.8 |
| 20260507193128 | 6 | 224 | 3.2 | 12.9 | 0.00 | 0.00 | 0.00 | 62 | 1010.0 |
| 20260507192128 | 6 | 224 | 3.2 | 12.9 | 0.00 | 0.00 | 0.00 | 62 | 1010.0 |
| 20260507185127 | 6 | 327 | 11.3 | 16.1 | 0.00 | 0.00 | 0.00 | 66 | 1010.2 |
| 20260507184127 | 6 | 327 | 11.3 | 16.1 | 0.00 | 0.00 | 0.00 | 66 | 1010.2 |
| 20260507183128 | 7 | 244 | 1.6 | 17.7 | 0.00 | 0.00 | 0.00 | 53 | 1010.0 |
| 20260507182127 | 7 | 256 | 6.4 | 17.7 | 0.00 | 0.00 | 0.00 | 53 | 1010.0 |
| 20260507180128 | 8 | 230 | 8.0 | 20.9 | 0.00 | 0.00 | 0.00 | 44 | 1010.0 |
| 20260507175127 | 8 | 230 | 8.0 | 20.9 | 0.00 | 0.00 | 0.00 | 44 | 1010.0 |
| 20260507174128 | 7 | 12 | 6.4 | 22.5 | 0.00 | 0.00 | 0.00 | 48 | 1010.3 |
| 20260507173128 | 7 | 12 | 6.4 | 22.5 | 0.00 | 0.00 | 0.00 | 48 | 1010.3 |
| 20260507172129 | 6 | 296 | 6.4 | 24.1 | 0.00 | 0.00 | 0.00 | 51 | 1010.7 |
| 20260507170128 | 7 | 302 | 1.6 | 22.5 | 0.00 | 0.00 | 0.00 | 46 | 1010.6 |
| 20260507165128 | 7 | 302 | 1.6 | 22.5 | 0.00 | 0.00 | 0.00 | 46 | 1010.6 |
| 20260507164128 | 7 | 342 | 6.4 | 12.9 | 0.00 | 0.00 | 0.00 | 46 | 1010.7 |
| 20260507163128 | 7 | 342 | 6.4 | 12.9 | 0.00 | 0.00 | 0.00 | 46 | 1010.7 |
| 20260507162128 | 5 | 250 | 6.4 | 22.5 | 0.00 | 0.00 | 0.00 | 59 | 1011.0 |
| 20260507161129 | 5 | 250 | 6.4 | 22.5 | 0.00 | 0.00 | 0.00 | 59 | 1011.0 |
| 20260507160129 | 7 | 240 | 11.3 | 17.7 | 0.00 | 0.00 | 0.00 | 47 | 1010.8 |
| 20260507152129 | 6 | 343 | 12.9 | 22.5 | 0.00 | 0.00 | 0.00 | 51 | 1011.0 |
| 20260507151129 | 6 | 235 | 3.2 | 19.3 | 0.00 | 0.00 | 0.00 | 53 | 1011.2 |
| 20260507150128 | 6 | 235 | 3.2 | 19.3 | 0.00 | 0.00 | 0.00 | 53 | 1011.2 |
| 20260507145128 | 5 | 233 | 8.0 | 17.7 | 0.00 | 0.00 | 0.00 | 54 | 1011.2 |
| 20260507144129 | 5 | 233 | 8.0 | 17.7 | 0.00 | 0.00 | 0.00 | 54 | 1011.2 |
| 20260507143129 | 5 | 355 | 4.8 | 16.1 | 0.00 | 0.00 | 0.00 | 57 | 1011.3 |
| 20260507142129 | 5 | 355 | 4.8 | 16.1 | 0.00 | 0.00 | 0.00 | 57 | 1011.3 |
| 20260507135128 | 3 | 282 | 3.2 | 12.9 | 0.00 | 0.00 | 0.00 | 64 | 1011.6 |
| 20260507134128 | 3 | 282 | 3.2 | 12.9 | 0.00 | 0.00 | 0.00 | 64 | 1011.6 |
| 20260507133129 | 2 | 302 | 3.2 | 12.9 | 0.00 | 0.00 | 0.00 | 68 | 1011.8 |
| 20260507132130 | 2 | 302 | 3.2 | 12.9 | 0.00 | 0.00 | 0.00 | 68 | 1011.8 |
| 20260507131130 | 1 | 355 | 3.2 | 17.7 | 0.00 | 0.00 | 0.00 | 72 | 1011.8 |
| 20260507130129 | 1 | 355 | 3.2 | 17.7 | 0.00 | 0.00 | 0.00 | 72 | 1011.8 |
| 20260507125129 | 1 | 61 | 3.2 | 12.9 | 0.00 | 0.00 | 0.00 | 75 | 1011.9 |
| 20260507124130 | 1 | 61 | 3.2 | 12.9 | 0.00 | 0.00 | 0.00 | 75 | 1011.9 |
| 20260507123129 | 0 | 236 | 1.6 | 8.0 | 0.00 | 0.00 | 0.00 | 79 | 1011.9 |
| 20260507122130 | 0 | 236 | 1.6 | 8.0 | 0.00 | 0.00 | 0.00 | 79 | 1011.9 |
| 20260507121130 | 0 | 239 | 0.0 | 8.0 | 0.00 | 0.00 | 0.00 | 81 | 1012.0 |
| 20260507120129 | -1 | 258 | 3.2 | 1.6 | 0.00 | 0.00 | 0.00 | 83 | 1011.9 |
| 20260507115131 | -1 | 258 | 3.2 | 1.6 | 0.00 | 0.00 | 0.00 | 83 | 1011.9 |
| 20260507114131 | -1 | 290 | 0.0 | 0.0 | 0.00 | 0.00 | 0.00 | 83 | 1011.8 |
| 20260507112130 | -1 | 290 | 0.0 | 3.2 | 0.00 | 0.00 | 0.00 | 83 | 1011.8 |
| 20260507111129 | -1 | 290 | 0.0 | 3.2 | 0.00 | 0.00 | 0.00 | 83 | 1011.8 |
| 20260507110129 | -1 | 290 | 0.0 | 1.6 | 0.00 | 0.00 | 0.00 | 83 | 1011.9 |
| 20260507105130 | -1 | 290 | 0.0 | 1.6 | 0.00 | 0.00 | 0.00 | 83 | 1011.9 |
| 20260507104130 | -1 | 290 | 0.0 | 0.0 | 0.00 | 0.00 | 0.00 | 83 | 1011.9 |
| 20260507103129 | -1 | 290 | 0.0 | 0.0 | 0.00 | 0.00 | 0.00 | 83 | 1011.9 |
| 20260507102130 | -1 | 290 | 0.0 | 0.0 | 0.00 | 0.00 | 0.00 | 83 | 1012.0 |
| 20260507101129 | -1 | 290 | 0.0 | 0.0 | 0.00 | 0.00 | 0.00 | 83 | 1012.0 |
| 20260507100129 | -1 | 290 | 0.0 | 0.0 | 0.00 | 0.00 | 0.00 | 82 | 1012.0 |
| 20260507095130 | -1 | 290 | 0.0 | 0.0 | 0.00 | 0.00 | 0.00 | 82 | 1012.0 |
| 20260507094130 | -1 | 290 | 0.0 | 1.6 | 0.00 | 0.00 | 0.00 | 82 | 1012.0 |
| 20260507093131 | -1 | 290 | 0.0 | 1.6 | 0.00 | 0.00 | 0.00 | 82 | 1012.0 |
| 20260507092131 | -1 | 290 | 0.0 | 1.6 | 0.00 | 0.00 | 0.00 | 81 | 1012.0 |
| 20260507091131 | -1 | 290 | 0.0 | 1.6 | 0.00 | 0.00 | 0.00 | 81 | 1012.0 |
| 20260507090131 | 0 | 290 | 0.0 | 1.6 | 0.00 | 0.00 | 0.00 | 80 | 1012.1 |
| 20260507085134 | 0 | 290 | 0.0 | 0.0 | 0.00 | 0.00 | 0.00 | 79 | 1012.2 |
| 20260507084132 | 0 | 290 | 0.0 | 0.0 | 0.00 | 0.00 | 0.00 | 79 | 1012.2 |
| 20260507083131 | 0 | 290 | 0.0 | 1.6 | 0.00 | 0.00 | 0.00 | 77 | 1012.3 |
| 20260507082131 | 0 | 290 | 0.0 | 1.6 | 0.00 | 0.00 | 0.00 | 77 | 1012.3 |
| 20260507081133 | 0 | 290 | 0.0 | 1.6 | 0.00 | 0.00 | 0.00 | 76 | 1012.3 |
| 20260507080133 | 0 | 290 | 0.0 | 1.6 | 0.00 | 0.00 | 0.00 | 76 | 1012.3 |
| 20260507075132 | 1 | 290 | 0.0 | 1.6 | 0.00 | 0.00 | 0.00 | 75 | 1012.3 |
| 20260507074130 | 1 | 290 | 0.0 | 1.6 | 0.00 | 0.00 | 0.00 | 75 | 1012.3 |
| 20260507073132 | 1 | 290 | 0.0 | 3.2 | 0.00 | 0.00 | 0.00 | 76 | 1012.4 |
| 20260507072131 | 1 | 290 | 0.0 | 3.2 | 0.00 | 0.00 | 0.00 | 76 | 1012.4 |